TimeEDT,TemperatureF,Dew PointF,Humidity,Sea Level PressureIn,VisibilityMPH,Wind Direction,Wind SpeedMPH,Gust SpeedMPH,PrecipitationIn,Events,Conditions,WindDirDegrees,DateUTC
12:15 AM,71.8,68.0,88,29.78,10.0,Calm,Calm,-,N/A,,Clear,0,2013-06-30 04:15:00
12:35 AM,68.9,67.1,94,29.79,10.0,Calm,Calm,-,N/A,,Clear,0,2013-06-30 04:35:00
12:55 AM,68.0,66.7,96,29.79,10.0,Calm,Calm,-,N/A,,Clear,0,2013-06-30 04:55:00
1:15 AM,67.8,67.1,98,29.79,10.0,Calm,Calm,-,N/A,,Clear,0,2013-06-30 05:15:00
1:35 AM,67.3,66.6,98,29.79,10.0,Calm,Calm,-,N/A,,Clear,0,2013-06-30 05:35:00
1:55 AM,68.4,67.6,98,29.79,10.0,Calm,Calm,-,N/A,,Mostly Cloudy,0,2013-06-30 05:55:00
2:15 AM,67.8,66.7,96,29.78,10.0,Calm,Calm,-,N/A,,Overcast,0,2013-06-30 06:15:00
2:35 AM,68.0,67.3,98,29.78,10.0,Calm,Calm,-,N/A,,Mostly Cloudy,0,2013-06-30 06:35:00
2:55 AM,67.6,67.3,99,29.79,7.0,Calm,Calm,-,N/A,,Overcast,0,2013-06-30 06:55:00
3:15 AM,67.1,66.6,98,29.78,7.0,Calm,Calm,-,N/A,,Overcast,0,2013-06-30 07:15:00
3:35 AM,68.0,67.8,99,29.78,10.0,Calm,Calm,-,N/A,,Overcast,0,2013-06-30 07:35:00
3:55 AM,67.5,67.3,99,29.78,7.0,Calm,Calm,-,N/A,,Overcast,0,2013-06-30 07:55:00
4:15 AM,67.8,67.6,99,29.78,10.0,Calm,Calm,-,N/A,,Overcast,0,2013-06-30 08:15:00
4:35 AM,68.0,67.5,98,29.78,7.0,Calm,Calm,-,N/A,,Overcast,0,2013-06-30 08:35:00
4:55 AM,67.5,67.1,99,29.78,7.0,Calm,Calm,-,N/A,,Overcast,0,2013-06-30 08:55:00
5:15 AM,67.6,67.5,99,29.78,7.0,Calm,Calm,-,N/A,,Overcast,0,2013-06-30 09:15:00
5:35 AM,67.8,67.5,99,29.80,7.0,Calm,Calm,-,N/A,,Overcast,0,2013-06-30 09:35:00
5:55 AM,68.0,67.8,99,29.81,7.0,Calm,Calm,-,N/A,,Overcast,0,2013-06-30 09:55:00
6:15 AM,68.4,68.0,99,29.81,10.0,Calm,Calm,-,N/A,,Overcast,0,2013-06-30 10:15:00
6:35 AM,68.4,68.0,99,29.81,7.0,Calm,Calm,-,N/A,,Overcast,0,2013-06-30 10:35:00
6:55 AM,68.5,67.8,98,29.82,10.0,Calm,Calm,-,N/A,,Overcast,0,2013-06-30 10:55:00
7:15 AM,68.4,68.0,99,29.82,7.0,Calm,Calm,-,N/A,,Overcast,0,2013-06-30 11:15:00
7:35 AM,68.0,67.6,99,29.83,5.0,Calm,Calm,-,N/A,,Overcast,0,2013-06-30 11:35:00
7:55 AM,68.4,68.0,99,29.83,7.0,Calm,Calm,-,N/A,,Overcast,0,2013-06-30 11:55:00
8:15 AM,68.4,68.0,99,29.85,5.0,Calm,Calm,-,N/A,,Overcast,0,2013-06-30 12:15:00
8:35 AM,68.4,68.0,99,29.85,5.0,Calm,Calm,-,N/A,,Overcast,0,2013-06-30 12:35:00
8:55 AM,69.6,68.2,95,29.85,7.0,Calm,Calm,-,N/A,,Overcast,0,2013-06-30 12:55:00
9:15 AM,70.2,67.6,92,29.86,10.0,Calm,Calm,-,N/A,,Overcast,0,2013-06-30 13:15:00
9:35 AM,71.8,67.8,87,29.86,10.0,Calm,Calm,-,N/A,,Overcast,0,2013-06-30 13:35:00
9:55 AM,72.5,67.3,84,29.86,10.0,Calm,Calm,-,N/A,,Overcast,0,2013-06-30 13:55:00
10:35 AM,74.7,67.1,77,29.85,10.0,Calm,Calm,-,N/A,,Mostly Cloudy,0,2013-06-30 14:35:00
10:55 AM,75.0,66.4,74,29.86,10.0,Calm,Calm,-,N/A,,Mostly Cloudy,0,2013-06-30 14:55:00
11:15 AM,78.3,66.6,67,29.86,10.0,ENE,3.5,-,N/A,,Mostly Cloudy,60,2013-06-30 15:15:00
11:35 AM,77.7,66.6,68,29.86,10.0,South,3.5,-,N/A,,Mostly Cloudy,170,2013-06-30 15:35:00
11:55 AM,78.8,65.7,64,29.86,10.0,ENE,4.6,-,N/A,,Scattered Clouds,60,2013-06-30 15:55:00
12:15 PM,80.4,66.4,62,29.86,10.0,ESE,5.8,-,N/A,,Scattered Clouds,110,2013-06-30 16:15:00
12:35 PM,81.3,65.3,58,29.85,10.0,SSE,3.5,-,N/A,,Scattered Clouds,150,2013-06-30 16:35:00
12:55 PM,81.0,65.3,59,29.85,10.0,SE,4.6,-,N/A,,Scattered Clouds,140,2013-06-30 16:55:00
1:15 PM,82.4,64.8,55,29.85,10.0,East,3.5,-,N/A,,Mostly Cloudy,100,2013-06-30 17:15:00
1:35 PM,82.6,64.8,55,29.84,10.0,SSE,5.8,-,N/A,,Scattered Clouds,150,2013-06-30 17:35:00
1:55 PM,81.9,66.6,60,29.83,10.0,SE,5.8,-,N/A,,Mostly Cloudy,140,2013-06-30 17:55:00
2:15 PM,82.2,66.6,59,29.83,10.0,SE,4.6,-,N/A,,Scattered Clouds,130,2013-06-30 18:15:00
2:35 PM,82.6,65.5,56,29.82,10.0,SE,3.5,-,N/A,,Clear,130,2013-06-30 18:35:00
2:55 PM,82.4,66.2,58,29.82,10.0,East,5.8,-,N/A,,Clear,100,2013-06-30 18:55:00
3:15 PM,83.7,66.2,56,29.82,10.0,SE,8.1,-,N/A,,Clear,130,2013-06-30 19:15:00
3:35 PM,84.4,63.5,49,29.82,10.0,ESE,8.1,-,N/A,,Scattered Clouds,120,2013-06-30 19:35:00
3:55 PM,84.4,64.4,51,29.82,10.0,SSE,6.9,-,N/A,,Scattered Clouds,150,2013-06-30 19:55:00
4:15 PM,84.4,61.3,46,29.82,10.0,SSE,5.8,-,N/A,,Clear,150,2013-06-30 20:15:00
4:35 PM,84.4,62.6,48,29.81,10.0,ESE,5.8,-,N/A,,Scattered Clouds,120,2013-06-30 20:35:00
4:55 PM,84.6,63.7,49,29.81,10.0,SSE,6.9,-,N/A,,Scattered Clouds,150,2013-06-30 20:55:00
5:15 PM,82.4,63.0,52,29.81,10.0,Calm,Calm,-,N/A,,Mostly Cloudy,0,2013-06-30 21:15:00
5:35 PM,81.9,65.7,58,29.82,10.0,Calm,Calm,-,N/A,,Mostly Cloudy,0,2013-06-30 21:35:00
5:55 PM,80.8,67.6,64,29.83,10.0,SSE,3.5,-,N/A,,Mostly Cloudy,150,2013-06-30 21:55:00
6:15 PM,80.2,68.0,66,29.83,10.0,Calm,Calm,-,N/A,,Overcast,0,2013-06-30 22:15:00
6:35 PM,79.7,68.4,68,29.83,10.0,Calm,Calm,-,N/A,,Mostly Cloudy,0,2013-06-30 22:35:00
6:55 PM,78.8,68.5,71,29.84,10.0,Calm,Calm,-,N/A,,Scattered Clouds,0,2013-06-30 22:55:00
7:15 PM,78.1,68.5,72,29.83,10.0,ESE,3.5,-,N/A,,Clear,110,2013-06-30 23:15:00
7:35 PM,77.2,68.9,76,29.85,10.0,SE,4.6,-,N/A,Rain,Light Rain,130,2013-06-30 23:35:00
7:55 PM,76.1,69.4,80,29.85,10.0,SSE,12.7,18.4,N/A,Rain,Light Rain,160,2013-06-30 23:55:00
8:15 PM,71.8,69.1,91,29.86,4.0,SSE,9.2,-,0.03,Rain,Heavy Rain,150,2013-07-01 00:15:00
8:35 PM,70.3,69.1,96,29.86,4.0,SE,6.9,16.1,0.12,Rain,Rain,140,2013-07-01 00:35:00
8:55 PM,69.6,68.7,97,29.87,7.0,SSE,8.1,-,0.15,Rain,Rain,150,2013-07-01 00:55:00
9:15 PM,68.9,67.6,96,29.89,10.0,SE,3.5,-,0.01,Rain,Light Rain,140,2013-07-01 01:15:00
9:35 PM,68.4,67.3,96,29.89,10.0,SE,4.6,-,0.01,,Light Drizzle,140,2013-07-01 01:35:00
9:55 PM,68.4,67.3,96,29.90,10.0,Calm,Calm,-,0.02,Rain,Light Rain,0,2013-07-01 01:55:00
10:15 PM,68.5,67.5,96,29.91,7.0,Calm,Calm,-,N/A,,Overcast,0,2013-07-01 02:15:00
10:35 PM,68.0,67.8,99,29.91,7.0,Calm,Calm,-,N/A,Rain,Light Rain,0,2013-07-01 02:35:00
10:55 PM,68.4,68.0,99,29.91,7.0,Calm,Calm,-,N/A,Rain,Light Rain,0,2013-07-01 02:55:00
11:15 PM,68.0,67.6,99,29.92,5.0,Calm,Calm,-,0.01,Rain,Light Rain,0,2013-07-01 03:15:00
11:35 PM,68.0,67.6,99,29.91,5.0,Calm,Calm,-,0.01,,Overcast,0,2013-07-01 03:35:00
11:55 PM,68.0,67.6,99,29.92,5.0,Calm,Calm,-,0.01,,Overcast,0,2013-07-01 03:55:00